Find Meteor

NORAD ID: 7209 Int'l Des: 1974-011 Owner: GUKOSR/GMS Country: SU operational
LEOCIRCULARPOLAR

实时位置

正在加载3D地球...

关于 Meteor

正在加载描述...

即将过境

Passes for default location (London). Set your location on the main map for personalized predictions.

高度历史

Loading altitude history...

两行轨道根数

1 07209U 74011A 26120.96712518 .00000120 00000-0 55574-4 0 9994
2 07209 81.2262 76.0664 0038610 174.8843 185.2733 14.14541043688562
Epoch: Apr 30, 2026 • Age: 11 hours

当前状态

高度 831.6 km
速度 7.45 km/s
星下点 49.71°N, 124.29°W
类型 other

Most Searched